STARLINK-1642, 46154

Orbit data source: Space-Track

STARLINK-1642, 46154 is a payload satellite owned by SpaceX/Seattle (US) in LEO that was launched on Tue, 18 Aug 2020 UTC via an FALCON 9 launch vehicle from the Air Force Eastern Test Range (AFETR). Payload-class satellites include a variety of spacecraft equipped with specific instruments for various scientific and technological missions. These include communications satellites like Starlink; space stations such as the ISS; scientific satellites like the Hubble; Earth observation satellites from companies like Planet Labs, Umbra, and HawkEye 360; GPS; miniature CubeSats for education and research; and military/defense satellites.

Loading next visibility...
Identifier
46154, 2020-057AP
Orbit
LEO
Country
Flag of USUS
Related business
Manufacturer
SpaceX/Seattle
Mission
Partially operational Commercial Communications
Bus & Motor
STARLINK, Unknown motor
Mass
260 kg wet, ~248 kg dry
Launch date (UTC)
2020-08-18 (5 years ago)
Launch vehicle
FALCON 9
Launch site
Air Force Eastern Test Range (AFETR)
Object type
Payload
Rocket body
Debris
Shape & HBR
Box + 1 Pan, 4.4 m
Radar Cross Section
13.562 m², Large (>1 m²)

Expand to show TLE details & history
Last TLE update: 10 hours ago

TLE from 10 hours ago
0 STARLINK-1642
1 46154U 20057AP  25259.56719943  .00081023  00000-0  22063-2 0  9990
2 46154  53.0545   2.7174 0007244 306.0815  53.9515 15.36792223280047
Epoch: 2025-09-16T13:36Z
TLE epoch observation values (Epoch: 2025-09-16T13:36:46.03Z)
Latitude
-0.00011°
Longitude
162.76988°
Altitude
453.582 km
Speed
7.643 km/s
True Right ascension
00h 10m 52s
True Declination
0° 00' 00"
Sunlit
Object was in full shadow at epoch
Visualization orbit readout
Latitude
Unknown
Longitude
Unknown
Altitude
Unknown
Speed
Unknown
Apparent Right ascension
Unknown
Apparent Declination
Unknown
Sunlit
N/A
Visualization observer readout
Local Sidereal Time
16:17:34
Azimuth
Unknown
Elevation
Unknown
Doppler factor
Unknown
Orbital elements
Apogee altitude
460.827 km
Perigee altitude
450.926 km
Semi-major axis
6,834.014 km
Eccentricity
0.00072
Inclination
53.0545°
RAAN
2.7174°
Arg. of periapsis
306.0815°
True anomaly
54.01865°
Mean anomaly
53.9515°
Eccentric anomaly
53.98507°
Mean motion
3.84175 °/min
Orbital period
93.71 mins
BSTAR
0.0022063
Loading maneuver chart data...
Computing Atmospheric mass density...
Loading historical data...
Loading historical data...
Loading historical data...
Loading historical data...
Loading historical data...
Loading historical data...
Loading historical data...

Documentation

Showing up to 5 results
|